Tillbaka till svenska Fidonet
English   Information   Debug  
FILM   0/18
FNEWS_PUBLISH   4577
FN_SYSOP   41808
FN_SYSOP_OLD1   71952
FTP_FIDO   0/2
FTSC_PUBLIC   0/13887
FUNNY   0/4886
GENEALOGY.EUR   0/71
GET_INFO   105
GOLDED   0/408
HAM   0/16143
HOLYSMOKE   0/6791
HOT_SITES   0/1
HTMLEDIT   0/71
HUB203   466
HUB_100   264
HUB_400   39
HUMOR   0/29
IC   0/2851
INTERNET   0/424
INTERUSER   0/3
IP_CONNECT   719
JAMNNTPD   0/233
JAMTLAND   0/47
KATTY_KORNER   0/41
LAN   0/16
LINUX-USER   0/19
LINUXHELP   0/1155
LINUX   0/22169
LINUX_BBS   0/957
mail   18.68
mail_fore_ok   249
MENSA   0/341
MODERATOR   0/102
MONTE   0/992
MOSCOW_OKLAHOMA   0/1245
MUFFIN   0/783
MUSIC   0/321
N203_STAT   938
N203_SYSCHAT   313
NET203   321
NET204   69
NET_DEV   0/10
NORD.ADMIN   0/101
NORD.CHAT   0/2572
NORD.FIDONET   189
NORD.HARDWARE   0/28
NORD.KULTUR   0/114
NORD.PROG   0/32
NORD.SOFTWARE   0/88
NORD.TEKNIK   0/58
NORD   0/453
OCCULT_CHAT   0/93
OS2BBS   0/787
OS2DOSBBS   0/580
OS2HW   0/42
OS2INET   0/37
OS2LAN   0/134
OS2PROG   0/36
OS2REXX   0/113
OS2USER-L   207
OS2   0/4804
OSDEBATE   8920/18996
PASCAL   0/490
PERL   0/457
PHP   0/45
POINTS   0/405
POLITICS   0/29554
POL_INC   0/14731
PSION   103
R20_ADMIN   1129
R20_AMATORRADIO   0/2
R20_BEST_OF_FIDONET   14
R20_CHAT   0/893
R20_DEPP   0/3
R20_DEV   399
R20_ECHO2   1497
R20_ECHOPRES   0/35
R20_ESTAT   0/719
R20_FIDONETPROG...
...RAM.MYPOINT
  0/2
R20_FIDONETPROGRAM   0/22
R20_FIDONET   0/248
R20_FILEFIND   0/24
R20_FILEFOUND   0/22
R20_HIFI   0/3
R20_INFO2   3387
R20_INTERNET   0/12940
R20_INTRESSE   0/60
R20_INTR_KOM   0/99
R20_KANDIDAT.CHAT   42
R20_KANDIDAT   28
R20_KOM_DEV   112
R20_KONTROLL   0/13360
R20_KORSET   0/18
R20_LOKALTRAFIK   0/24
R20_MODERATOR   0/1852
R20_NC   76
R20_NET200   245
R20_NETWORK.OTH...
...ERNETS
  0/13
R20_OPERATIVSYS...
...TEM.LINUX
  0/44
R20_PROGRAMVAROR   0/1
R20_REC2NEC   534
R20_SFOSM   0/341
R20_SF   0/108
R20_SPRAK.ENGLISH   0/1
R20_SQUISH   107
R20_TEST   2
R20_WORST_OF_FIDONET   20
RAR   0/9
RA_MULTI   106
RA_UTIL   0/162
REGCON.EUR   0/2066
REGCON   0/13
SCIENCE   0/1206
SF   0/239
SHAREWARE_SUPPORT   0/5146
SHAREWRE   0/14
SIMPSONS   0/169
STATS_OLD1   0/2539.065
STATS_OLD2   0/2530
STATS_OLD3   0/2395.095
STATS_OLD4   0/1692.25
SURVIVOR   0/495
SYSOPS_CORNER   0/3
SYSOP   0/84
TAGLINES   0/112
TEAMOS2   0/4530
TECH   0/2617
TEST.444   0/105
TRAPDOOR   0/19
TREK   0/755
TUB   0/290
UFO   0/40
UNIX   0/1316
USA_EURLINK   0/102
USR_MODEMS   0/1
VATICAN   0/2740
VIETNAM_VETS   0/14
VIRUS   0/378
VIRUS_INFO   0/201
VISUAL_BASIC   0/473
WHITEHOUSE   0/5187
WIN2000   0/101
WIN32   0/30
WIN95   2249/4291
WIN95_OLD1   0/70272
WINDOWS   0/1517
WWB_SYSOP   0/419
WWB_TECH   0/810
ZCC-PUBLIC   0/1
ZEC   4

 
4DOS   0/134
ABORTION   0/7
ALASKA_CHAT   0/506
ALLFIX_FILE   0/1313
ALLFIX_FILE_OLD1   0/7997
ALT_DOS   0/152
AMATEUR_RADIO   0/1039
AMIGASALE   0/14
AMIGA   0/331
AMIGA_INT   0/1
AMIGA_PROG   0/20
AMIGA_SYSOP   0/26
ANIME   0/15
ARGUS   0/924
ASCII_ART   0/340
ASIAN_LINK   0/651
ASTRONOMY   0/417
AUDIO   0/92
AUTOMOBILE_RACING   0/105
BABYLON5   0/17862
BAG   135
BATPOWER   0/361
BBBS.ENGLISH   0/382
BBSLAW   0/109
BBS_ADS   0/5290
BBS_INTERNET   0/507
BIBLE   0/3563
BINKD   0/1119
BINKLEY   0/215
BLUEWAVE   0/2173
CABLE_MODEMS   0/25
CBM   0/46
CDRECORD   0/66
CDROM   0/20
CLASSIC_COMPUTER   0/378
COMICS   0/15
CONSPRCY   0/899
COOKING   36313
COOKING_OLD1   0/24719
COOKING_OLD2   0/40862
COOKING_OLD3   0/37489
COOKING_OLD4   0/35496
COOKING_OLD5   9370
C_ECHO   0/189
C_PLUSPLUS   0/31
DIRTY_DOZEN   0/201
DOORGAMES   0/2115
DOS_INTERNET   0/196
duplikat   6002
ECHOLIST   0/18295
EC_SUPPORT   0/318
ELECTRONICS   0/359
ELEKTRONIK.GER   1534
ENET.LINGUISTIC   0/13
ENET.POLITICS   0/4
ENET.SOFT   0/11701
ENET.SYSOP   34077
ENET.TALKS   0/32
ENGLISH_TUTOR   0/2000
EVOLUTION   0/1335
FDECHO   0/217
FDN_ANNOUNCE   0/7068
FIDONEWS   24357
FIDONEWS_OLD1   0/49742
FIDONEWS_OLD2   0/35949
FIDONEWS_OLD3   0/30874
FIDONEWS_OLD4   2985/37224
FIDO_SYSOP   12854
FIDO_UTIL   0/180
FILEFIND   0/209
FILEGATE   0/212
Möte HAM, 16143 texter
 lista första sista föregående nästa
Text 2882, 787 rader
Skriven 2009-04-02 23:30:18 av Amsat List (1:323/120.0)
Ärende: [keps]  orb09092.amsa
=============================
[keps]  orb09092.amsa

Return-Path: <keps-bounces@amsat.org>
X-Rcpt: craig.healy@chowda.com
X-UIDL: 1238775514.15481

SB KEPS @ AMSAT  $ORB09092.O
Orbital Elements  09092.OSCAR

HR AMSAT ORBITAL ELEMENTS FOR OSCAR SATELLITES
FROM WA5QGD FORT WORTH,TX April 2, 2009
Send Subscribe/unsubscribe to KEPS at 
http://www.amsat.org/mailman/listinfo/keps
BID: ORB09092.O
TO ALL RADIO AMATEURS BT

Satellite: AO-07
Catalog number: 07530
Epoch time:      09092.51213256
Element set:     441
Inclination:      101.4341 deg
RA of node:       119.9496 deg
Eccentricity:    0.0012072
Arg of perigee:   057.5686 deg
Mean anomaly:     302.6554 deg
Mean motion:   12.53575587 rev/day
Decay rate:       -2.7e-07 rev/day^2
Epoch rev:           57323
Checksum:              292

Satellite: AO-10
Catalog number: 14129
Epoch time:      09091.00742006
Element set:    0640
Inclination:      025.9572 deg
RA of node:       164.0988 deg
Eccentricity:    0.5985792
Arg of perigee:   210.5252 deg
Mean anomaly:     094.1221 deg
Mean motion:   02.05867547 rev/day
Decay rate:       1.01e-06 rev/day^2
Epoch rev:           19403
Checksum:              286

Satellite: UO-11
Catalog number: 14781
Epoch time:      09091.66665395
Element set:     925
Inclination:      098.1156 deg
RA of node:       135.4137 deg
Eccentricity:    0.0008303
Arg of perigee:   219.3045 deg
Mean anomaly:     140.7572 deg
Mean motion:   14.79700987 rev/day
Decay rate:      -2.26e-06 rev/day^2
Epoch rev:           34651
Checksum:              314

Satellite: RS-15
Catalog number: 23439
Epoch time:      09092.76932847
Element set:     191
Inclination:      064.8131 deg
RA of node:       026.7709 deg
Eccentricity:    0.0146758
Arg of perigee:   066.1701 deg
Mean anomaly:     295.4532 deg
Mean motion:   11.27553177 rev/day
Decay rate:       -3.9e-07 rev/day^2
Epoch rev:           58761
Checksum:              330

Satellite: FO-29
Catalog number: 24278
Epoch time:      09091.68402176
Element set:    0022
Inclination:      098.5638 deg
RA of node:       335.9636 deg
Eccentricity:    0.0350586
Arg of perigee:   188.4621 deg
Mean anomaly:     171.0505 deg
Mean motion:   13.52942395 rev/day
Decay rate:       -2.7e-07 rev/day^2
Epoch rev:           62340
Checksum:              320

Satellite: SO-33
Catalog number: 25509
Epoch time:      09091.44914546
Element set:    0422
Inclination:      031.4311 deg
RA of node:       126.4001 deg
Eccentricity:    0.0354135
Arg of perigee:   027.5274 deg
Mean anomaly:     334.3621 deg
Mean motion:   14.28248206 rev/day
Decay rate:       2.16e-06 rev/day^2
Epoch rev:           54485
Checksum:              270

Satellite: AO-40
Catalog number: 26609
Epoch time:      09092.16792666
Element set:     209
Inclination:      009.0768 deg
RA of node:       025.4745 deg
Eccentricity:    0.7956539
Arg of perigee:   190.5017 deg
Mean anomaly:     126.1224 deg
Mean motion:   01.25583921 rev/day
Decay rate:      -3.21e-06 rev/day^2
Epoch rev:            3867
Checksum:              320

Satellite: RS-22
Catalog number: 27939
Epoch time:      09092.57139696
Element set:     755
Inclination:      097.9560 deg
RA of node:       330.1489 deg
Eccentricity:    0.0013908
Arg of perigee:   016.3195 deg
Mean anomaly:     343.8445 deg
Mean motion:   14.63304711 rev/day
Decay rate:        1.1e-07 rev/day^2
Epoch rev:           29451
Checksum:              322

Satellite: VO-52
Catalog number: 28650
Epoch time:      09091.80030356
Element set:     193
Inclination:      097.7484 deg
RA of node:       155.8811 deg
Eccentricity:    0.0026024
Arg of perigee:   279.9261 deg
Mean anomaly:     079.9056 deg
Mean motion:   14.81567140 rev/day
Decay rate:       1.17e-06 rev/day^2
Epoch rev:           21133
Checksum:              305

Satellite: PO-63
Catalog number: 29712
Epoch time:      09092.59241807
Element set:     366
Inclination:      097.8365 deg
RA of node:       150.7842 deg
Eccentricity:    0.0014555
Arg of perigee:   156.4580 deg
Mean anomaly:     203.7309 deg
Mean motion:   14.80490986 rev/day
Decay rate:       5.20e-06 rev/day^2
Epoch rev:           12028
Checksum:              318

/EX
SB KEPS @ AMSAT  $ORB09092.D
Orbital Elements  09092.MICROS

HR AMSAT ORBITAL ELEMENTS FOR THE MICROSATS
FROM WA5QGD FORT WORTH,TX April 2, 2009
Send Subscribe/unsubscribe to KEPS at 
http://www.amsat.org/mailman/listinfo/keps
BID: ORB09092.D
TO ALL RADIO AMATEURS BT

Satellite: AO-16
Catalog number: 20439
Epoch time:      09092.52256830
Element set:     571
Inclination:      098.2719 deg
RA of node:       064.3972 deg
Eccentricity:    0.0011664
Arg of perigee:   039.8914 deg
Mean anomaly:     320.3124 deg
Mean motion:   14.31819811 rev/day
Decay rate:      .00000000 rev/day^2
Epoch rev:             232
Checksum:              270

Satellite: LO-19
Catalog number: 20442
Epoch time:      09092.45221533
Element set:     491
Inclination:      098.2366 deg
RA of node:       071.8836 deg
Eccentricity:    0.0012670
Arg of perigee:   036.2433 deg
Mean anomaly:     323.9626 deg
Mean motion:   14.32056107 rev/day
Decay rate:       -1.0e-08 rev/day^2
Epoch rev:             247
Checksum:              272

Satellite: AO-27
Catalog number: 22825
Epoch time:      09091.90895350
Element set:    0212
Inclination:      098.4292 deg
RA of node:       047.7634 deg
Eccentricity:    0.0009079
Arg of perigee:   124.8818 deg
Mean anomaly:     235.3217 deg
Mean motion:   14.29261603 rev/day
Decay rate:       -1.9e-07 rev/day^2
Epoch rev:           80901
Checksum:              310

